[[{"header":{"parameterUnit":"m.s-1","parameterCategory":1,"la1":30.2991,"la2":30.254,"lo1":-89.0895,"lo2":-89.0444,"dy":0.0017,"dx":0.0017,"nx":28,"ny":28,"refTime":"2024-08-10T15:00:00:Z","depth":0,"parameterNumber":2,"parameterNumberName":"U-component_of_WINDS"},"data":[0,0,0,0,0,0,0,0,0,0,0,0,0,0,0,0,0,0,0,0,0,0,0,0,0,0,0,0,0,0,0,0,0,0,0,0,0,0,0,0,0,0,0,0,0,0,0,0,0,0,0,0,0,0,0,0,0,0,-1.7076,-1.7076,0,-1.7069,-1.7069,-1.7069,-1.7024,-1.7023,-1.7022,-1.7021,-1.7014,-1.7015,-1.7015,0,0,0,0,0,0,0,0,0,0,0,0,0,-1.7052,-1.7053,-1.7076,-1.7076,-1.7076,-1.7069,-1.7069,-1.7069,-1.7025,-1.7023,-1.7022,-1.7021,-1.7014,-1.7014,-1.7015,0,0,0,0,0,0,0,0,0,0,0,0,0,-1.7055,-1.7053,-1.7076,-1.7053,-1.7051,-1.7069,-1.7069,-1.7069,-1.7025,-1.7023,-1.7022,-1.702,-1.7013,-1.7014,-1.7016,-1.7055,0,0,-1.7019,-1.702,0,0,0,0,0,0,0,0,-1.7055,-1.7056,-1.7056,-1.7055,-1.7052,-1.7046,-1.7057,-1.7064,-1.7025,-1.7035,-1.7021,-1.7019,-1.7026,-1.7026,-1.7028,-1.7055,-1.7054,-1.7019,-1.702,-1.7021,-1.7021,0,0,0,0,0,0,0,-1.7055,-1.7056,-1.7073,-1.7057,-1.7054,-1.7043,-1.7042,-1.7058,-1.7039,-1.7034,-1.7031,-1.703,-1.7024,-1.7027,-1.7027,-1.7054,-1.7019,-1.702,-1.7021,-1.7022,-1.7113,-1.7115,0,0,0,0,0,0,-1.7058,-1.7056,-1.7073,-1.7073,-1.705,-1.7045,-1.7043,-1.705,-1.7039,-1.7036,-1.7032,-1.7028,-1.7026,-1.7026,-1.7027,-1.7072,-1.7021,-1.7022,-1.7022,-1.7111,-1.7113,-1.7115,0,0,0,0,0,0,-1.7058,-1.706,-1.7074,-1.7064,-1.7065,-1.7047,-1.7054,-1.705,-1.7053,-1.7037,-1.7034,-1.7038,-1.7024,-1.7025,-1.7048,-1.7071,-1.7022,-1.7023,-1.7109,-1.7112,-1.7114,-1.7163,0,0,0,0,0,0,-1.7057,-1.706,-1.7075,-1.7064,-1.7065,-1.7095,-1.7056,-1.7051,-1.7055,-1.705,-1.7042,-1.7039,-1.7023,-1.7047,-1.705,-1.7072,-1.7024,-1.7107,-1.7111,-1.7114,-1.7159,-1.7167,-1.7174,0,0,0,0,0,-1.7056,-1.7088,-1.7076,-1.7078,-1.7083,-1.7096,-1.7097,-1.7078,-1.7057,-1.7072,-1.7062,-1.704,-1.7069,-1.705,-1.7052,-1.7075,-1.7106,-1.711,-1.7113,-1.7156,-1.7165,-1.7173,0,0,0,0,0,0,-1.7101,-1.7087,-1.7072,-1.7102,-1.7101,-1.7089,-1.7106,-1.7088,-1.7093,-1.7088,-1.7065,-1.7063,-1.709,-1.7085,-1.7064,-1.7113,-1.7083,-1.7088,-1.7115,-1.7124,-1.7131,-1.7131,-1.7025,0,0,0,0,0,-1.7115,-1.7127,-1.7113,-1.7141,-1.7141,-1.7124,-1.7129,-1.7115,-1.7113,-1.7112,-1.7104,-1.7102,-1.7111,-1.7117,-1.7125,-1.7159,-1.7156,-1.7176,-1.7184,-1.719,-1.7193,-1.7211,-1.722,-1.7128,-1.7128,-1.7128,0,0,-1.7142,-1.7136,-1.7145,-1.715,-1.7147,-1.716,-1.7124,-1.7139,-1.7148,-1.7114,-1.7135,-1.713,-1.7127,-1.7155,-1.7168,-1.7152,-1.7218,-1.7194,-1.7199,-1.72,-1.7216,-1.7225,-1.7232,-1.7131,-1.713,-1.713,0,0,-1.7199,-1.7195,-1.7218,-1.7216,-1.7213,-1.7202,-1.7208,-1.7199,-1.7194,-1.7215,-1.719,-1.7201,-1.7216,-1.7215,-1.7217,-1.7275,-1.7255,-1.7278,-1.7315,-1.7333,-1.734,-1.7346,-1.7366,-1.7374,-1.7283,-1.7283,-1.7283,0,-1.7233,-1.7251,-1.7232,-1.7249,-1.7252,-1.7222,-1.7245,-1.7244,-1.7244,-1.7246,-1.723,-1.7249,-1.7245,-1.7273,-1.7288,-1.729,-1.7296,-1.7278,-1.734,-1.7346,-1.7352,-1.7371,-1.7379,-1.7285,-1.7285,-1.7285,-1.7285,0,-1.7294,-1.7307,-1.7326,-1.7326,-1.7332,-1.7352,-1.7335,-1.7343,-1.7329,-1.7319,-1.7341,-1.7336,-1.7342,-1.7348,-1.7334,-1.7374,-1.7365,-1.7345,-1.7314,-1.7364,-1.7381,-1.7388,-1.729,-1.7288,-1.7288,-1.7287,0,0,-1.7376,-1.7367,-1.7374,-1.7374,-1.7369,-1.7379,-1.7398,-1.7404,-1.7411,-1.7413,-1.7427,-1.7442,-1.7424,-1.7426,-1.7412,-1.7428,-1.7473,-1.7405,-1.7405,-1.7417,-1.7517,-1.7531,-1.754,-1.7461,-1.7462,-1.7463,-1.7517,0,-1.743,-1.7461,-1.7445,-1.7478,-1.749,-1.7463,-1.748,-1.7479,-1.7471,-1.7481,-1.7472,-1.7483,-1.7458,-1.7459,-1.7474,-1.7465,-1.7493,-1.7461,-1.7474,-1.7474,-1.7474,-1.7549,-1.7564,-1.7615,-1.7524,-1.7525,-1.7526,0,-1.7496,-1.75,-1.7535,-1.7529,-1.7533,-1.7548,-1.7553,-1.7562,-1.7561,-1.7554,-1.7558,-1.754,-1.7558,-1.7529,-1.7554,-1.7533,-1.7537,-1.7534,-1.7536,-1.7535,-1.7502,-1.7549,-1.7631,-1.7638,-1.7537,-1.7536,-1.7535,0,-1.7551,-1.7566,-1.7589,-1.759,-1.7584,-1.7595,-1.7593,-1.759,-1.7595,-1.7599,-1.7602,-1.7609,-1.7612,-1.7617,-1.7602,-1.7582,-1.7629,-1.7599,-1.7623,-1.7624,-1.7633,-1.7632,-1.7715,-1.7638,-1.7638,-1.7638,-1.7638,0,-1.7612,-1.7634,-1.7614,-1.7628,-1.7652,-1.7634,-1.7658,-1.7653,-1.7651,-1.7664,-1.7642,-1.7654,-1.7634,-1.7644,-1.7633,-1.7655,-1.7656,-1.7651,-1.7648,-1.7652,-1.7653,-1.7654,-1.7649,-1.764,-1.764,-1.7639,-1.7639,0,-1.7677,-1.7665,-1.7688,-1.768,-1.7679,-1.7697,-1.7691,-1.7703,-1.7695,-1.7711,-1.7714,-1.7701,-1.7712,-1.7698,-1.7708,-1.77,-1.773,-1.7721,-1.773,-1.7727,-1.7752,-1.775,-1.7838,-1.7848,-1.7766,-1.7767,-1.7767,0,-1.7716,-1.7732,-1.7727,-1.7734,-1.7733,-1.7745,-1.775,-1.7733,-1.7739,-1.774,-1.7752,-1.7762,-1.7768,-1.7787,-1.7779,-1.7786,-1.7777,-1.7808,-1.7778,-1.7782,-1.7776,-1.7775,-1.7776,-1.7813,-1.7814,-1.7815,-1.7815,0,-1.7785,-1.7779,-1.7787,-1.7794,-1.7801,-1.7805,-1.7808,-1.7815,-1.7797,-1.7806,-1.7817,-1.7822,-1.7833,-1.7842,-1.7848,-1.7845,-1.7827,-1.7825,-1.7831,-1.7835,-1.7839,-1.7836,-1.7745,-1.7823,-1.7822,-1.7821,-1.7821,-1.7821,-1.7837,-1.7851,-1.7849,-1.786,-1.786,-1.7864,-1.7875,-1.7869,-1.7878,-1.7886,-1.7875,-1.789,-1.7889,-1.7894,-1.7894,-1.7905,-1.7892,-1.7901,-1.7903,-1.7905,-1.7908,-1.7839,-1.7906,-1.7906,-1.7906,-1.7906,-1.7905,0,-1.7904,-1.7903,-1.7913,-1.7918,-1.7926,-1.791,-1.7912,-1.792,-1.7933,-1.7934,-1.7941,-1.7955,-1.7964,-1.7957,-1.7965,-1.7975,-1.7967,-1.7978,-1.7976,-1.7975,-1.792,-1.7913,-1.7984,-1.7984,-1.7984,-1.7984,-1.7984,-1.7984,-1.794,-1.7962,-1.7956,-1.7978,-1.7976,-1.799,-1.7993,-1.7996,-1.7997,-1.8013,-1.8021,-1.8017,-1.8015,-1.8022,-1.803,-1.8028,-1.8032,-1.8045,-1.8039,-1.7987,-1.7979,-1.7972,-1.7966,-1.8046,-1.8046,-1.8094,-1.8094,-1.8095]},{"header":{"parameterUnit":"m.s-1","parameterCategory":1,"la1":30.2991,"la2":30.254,"lo1":-89.0895,"lo2":-89.0444,"dy":0.0017,"dx":0.0017,"nx":28,"ny":28,"refTime":"2024-08-10T15:00:00:Z","depth":0,"parameterNumber":3,"parameterNumberName":"V-component_of_WINDS"},"data":[0,0,0,0,0,0,0,0,0,0,0,0,0,0,0,0,0,0,0,0,0,0,0,0,0,0,0,0,0,0,0,0,0,0,0,0,0,0,0,0,0,0,0,0,0,0,0,0,0,0,0,0,0,0,0,0,0,0,-0.4579,-0.458,0,-0.4588,-0.4588,-0.4589,-0.4578,-0.4578,-0.4577,-0.4577,-0.4586,-0.4587,-0.4588,0,0,0,0,0,0,0,0,0,0,0,0,0,-0.4553,-0.4553,-0.4579,-0.458,-0.458,-0.4588,-0.4588,-0.4589,-0.4578,-0.4578,-0.4577,-0.4577,-0.4586,-0.4587,-0.4588,0,0,0,0,0,0,0,0,0,0,0,0,0,-0.4563,-0.4554,-0.4579,-0.4576,-0.4575,-0.4588,-0.4588,-0.4589,-0.4578,-0.4578,-0.4577,-0.4577,-0.4586,-0.4587,-0.4588,-0.4605,0,0,-0.4591,-0.4591,0,0,0,0,0,0,0,0,-0.4563,-0.4564,-0.4576,-0.4576,-0.4576,-0.4582,-0.4582,-0.4594,-0.4578,-0.4577,-0.4577,-0.4576,-0.4585,-0.4586,-0.4589,-0.4606,-0.4606,-0.4591,-0.4591,-0.4592,-0.4592,0,0,0,0,0,0,0,-0.4562,-0.4564,-0.4583,-0.4576,-0.4576,-0.4573,-0.4574,-0.4585,-0.4584,-0.4577,-0.4577,-0.4578,-0.4585,-0.4588,-0.4589,-0.4606,-0.4591,-0.4591,-0.4592,-0.4592,-0.4636,-0.4637,0,0,0,0,0,0,-0.4562,-0.4563,-0.4583,-0.4583,-0.4568,-0.4574,-0.4575,-0.458,-0.4584,-0.4584,-0.4578,-0.4577,-0.4587,-0.4588,-0.459,-0.461,-0.4592,-0.4592,-0.4593,-0.4635,-0.4636,-0.4637,0,0,0,0,0,0,-0.4561,-0.4564,-0.4582,-0.4573,-0.4575,-0.4575,-0.4581,-0.4581,-0.4584,-0.4585,-0.4585,-0.4582,-0.4587,-0.4588,-0.4601,-0.461,-0.4593,-0.4594,-0.4635,-0.4636,-0.4636,-0.4651,0,0,0,0,0,0,-0.4561,-0.4564,-0.457,-0.4573,-0.4576,-0.4594,-0.4582,-0.4581,-0.4586,-0.4584,-0.4588,-0.4588,-0.4586,-0.46,-0.4602,-0.4611,-0.4594,-0.4634,-0.4635,-0.4636,-0.4649,-0.4652,-0.4654,0,0,0,0,0,-0.456,-0.4574,-0.4571,-0.4573,-0.4584,-0.4595,-0.4596,-0.4593,-0.4586,-0.4593,-0.4593,-0.4588,-0.4608,-0.4601,-0.4604,-0.4613,-0.4633,-0.4635,-0.4636,-0.4648,-0.4651,-0.4654,0,0,0,0,0,0,-0.4573,-0.4575,-0.4571,-0.4587,-0.4591,-0.4593,-0.4601,-0.4597,-0.4603,-0.4601,-0.4598,-0.4599,-0.4612,-0.4614,-0.4606,-0.4629,-0.462,-0.4622,-0.4628,-0.4631,-0.4633,-0.4633,-0.4595,0,0,0,0,0,-0.4578,-0.4586,-0.4587,-0.4601,-0.4603,-0.4602,-0.4606,-0.4604,-0.4607,-0.4609,-0.461,-0.4614,-0.4621,-0.4626,-0.4633,-0.4649,-0.465,-0.4657,-0.4659,-0.4661,-0.4663,-0.4671,-0.4674,-0.4641,-0.4641,-0.4641,0,0,-0.4588,-0.459,-0.4595,-0.4604,-0.4606,-0.4615,-0.4603,-0.4613,-0.4619,-0.461,-0.4623,-0.4623,-0.4627,-0.4642,-0.4648,-0.4643,-0.4672,-0.4663,-0.4664,-0.4665,-0.4673,-0.4676,-0.4678,-0.4642,-0.4642,-0.4642,0,0,-0.4611,-0.4613,-0.4625,-0.4627,-0.4631,-0.463,-0.4632,-0.4635,-0.4635,-0.4647,-0.4641,-0.4647,-0.466,-0.4663,-0.4666,-0.4688,-0.4683,-0.469,-0.4703,-0.4711,-0.4713,-0.4715,-0.4723,-0.4726,-0.4692,-0.4692,-0.4692,0,-0.4623,-0.4636,-0.4632,-0.4641,-0.4645,-0.4637,-0.4648,-0.4651,-0.4657,-0.4659,-0.4653,-0.4668,-0.467,-0.4685,-0.469,-0.4693,-0.4696,-0.469,-0.4713,-0.4715,-0.4717,-0.4725,-0.4728,-0.4693,-0.4693,-0.4692,-0.4692,0,-0.465,-0.4659,-0.4668,-0.4673,-0.4677,-0.4688,-0.4685,-0.469,-0.4687,-0.4686,-0.4697,-0.4699,-0.4706,-0.4709,-0.4706,-0.4723,-0.472,-0.4714,-0.4704,-0.4721,-0.4728,-0.4731,-0.4694,-0.4694,-0.4693,-0.4693,0,0,-0.4684,-0.4685,-0.4689,-0.469,-0.4693,-0.47,-0.4709,-0.4715,-0.4719,-0.4723,-0.4731,-0.4741,-0.4735,-0.4738,-0.4735,-0.4742,-0.4759,-0.4735,-0.4735,-0.4739,-0.4777,-0.4782,-0.4786,-0.4755,-0.4756,-0.4756,-0.4777,0,-0.4707,-0.4724,-0.4719,-0.4736,-0.4743,-0.4735,-0.4743,-0.4745,-0.4744,-0.475,-0.4749,-0.4756,-0.4748,-0.475,-0.4756,-0.4755,-0.4766,-0.4754,-0.4762,-0.4763,-0.4762,-0.4789,-0.4795,-0.4815,-0.4779,-0.478,-0.478,0,-0.4736,-0.474,-0.4758,-0.4758,-0.4761,-0.4769,-0.4773,-0.4779,-0.4781,-0.4779,-0.4782,-0.4778,-0.4787,-0.4776,-0.4788,-0.478,-0.4783,-0.4783,-0.4783,-0.4785,-0.4773,-0.4792,-0.4821,-0.4824,-0.4784,-0.4784,-0.4784,0,-0.4759,-0.4769,-0.478,-0.4782,-0.4783,-0.4788,-0.4788,-0.479,-0.4793,-0.4797,-0.4799,-0.4804,-0.4807,-0.481,-0.4807,-0.4799,-0.4819,-0.4808,-0.4818,-0.4818,-0.4824,-0.4824,-0.4854,-0.4825,-0.4825,-0.4825,-0.4825,0,-0.4786,-0.4797,-0.479,-0.4797,-0.4809,-0.4803,-0.4815,-0.4814,-0.4815,-0.4822,-0.4814,-0.4821,-0.4815,-0.4821,-0.4818,-0.4828,-0.4829,-0.4829,-0.4828,-0.483,-0.483,-0.4832,-0.4831,-0.4826,-0.4825,-0.4825,-0.4825,0,-0.4814,-0.481,-0.4822,-0.4821,-0.482,-0.4829,-0.4828,-0.4834,-0.4832,-0.484,-0.4842,-0.4839,-0.4845,-0.4841,-0.4847,-0.4845,-0.4859,-0.4856,-0.4858,-0.4858,-0.4868,-0.4867,-0.4902,-0.4906,-0.4873,-0.4874,-0.4874,0,-0.4831,-0.4839,-0.4839,-0.4842,-0.4843,-0.4849,-0.4852,-0.4846,-0.485,-0.4852,-0.4858,-0.4863,-0.4867,-0.4877,-0.4875,-0.488,-0.4877,-0.4889,-0.4878,-0.4879,-0.4877,-0.4877,-0.4878,-0.4891,-0.4892,-0.4892,-0.4892,0,-0.4863,-0.486,-0.4865,-0.4869,-0.4872,-0.4875,-0.4877,-0.4881,-0.4875,-0.4879,-0.4885,-0.4888,-0.4893,-0.4899,-0.4902,-0.4902,-0.4896,-0.4895,-0.4898,-0.49,-0.4901,-0.4901,-0.4865,-0.4895,-0.4895,-0.4894,-0.4894,-0.4894,-0.4887,-0.4893,-0.4893,-0.4898,-0.4899,-0.4901,-0.4906,-0.4904,-0.4909,-0.4913,-0.4909,-0.4916,-0.4916,-0.492,-0.4921,-0.4926,-0.4921,-0.4925,-0.4926,-0.4927,-0.4928,-0.49,-0.4926,-0.4926,-0.4926,-0.4926,-0.4926,0,-0.4918,-0.4917,-0.4922,-0.4925,-0.4928,-0.4921,-0.4923,-0.4927,-0.4933,-0.4933,-0.4937,-0.4943,-0.4948,-0.4945,-0.4949,-0.4954,-0.4951,-0.4955,-0.4955,-0.4955,-0.4932,-0.493,-0.4957,-0.4957,-0.4957,-0.4957,-0.4957,-0.4957,-0.4935,-0.4945,-0.4942,-0.4952,-0.4951,-0.4958,-0.4959,-0.496,-0.4961,-0.4968,-0.4971,-0.4969,-0.4969,-0.4972,-0.4976,-0.4975,-0.4977,-0.4982,-0.498,-0.496,-0.4957,-0.4954,-0.4951,-0.4982,-0.4982,-0.5002,-0.5002,-0.5002]}]]